Home   Weather   Lethbridge   Past weeks

Flag for Canada Past Weather in Lethbridge, Alberta, Canada — Yesterday and Last 2 Weeks

Now
0 °F

Light snow. Ice fog.


Feels Like: -14 °F
Forecast: -9 / 1 °F
Wind: 7 mph from North

Location: Lethbridge

Current Time: Dec 10, 2016 at 1:36:59 pm

Latest Report: Dec 10, 2016 at 1:00 pm


Visibility: 1 mi

Pressure: 30.03 "Hg (26.72 "Hg at 872m altitude)

Humidity: 84%

Dew Point: -4 °F

Location of LethbridgeLocation

Past Weather in Lethbridge — Graph

°F

Lethbridge Temperature Yesterday

Maximum temperature yesterday: 0 °F (at 7:00 pm)
Minimum temperature yesterday: -8 °F (at 9:00 am)
Average temperature yesterday: -4 °F

High & Low Weather Summary for the Past Weeks

 TemperatureHumidityPressure
High55 °F (Nov 26, 2:00 pm)100% (Dec 2, 1:00 am)30.95 "Hg (Dec 2, 1:00 am)
Low-22 °F (Dec 8, 7:00 am)33% (Nov 26, 2:00 pm)29.36 "Hg (Nov 27, 11:00 pm)
Average19 °F73%30.11 "Hg
* Reported Nov 25 12:00 pm — Dec 10 12:00 pm, Lethbridge, Weather by CustomWeather, © 2016

Note: Actual official high and low records may vary slightly from our data, if they occured in-between our weather recording intervals... More about our weather records

Advertising

Lethbridge Weather History for the Previous 24 Hours

Scroll right to see more
 ConditionsComfort  
Time TempWeatherWind HumidityBarometerVisibility
12:00 pm
Sat, Dec 10
0 °FLight snow. Ice fog.6 mph84%30.03 "Hg1 mi
11:00 am0 °FLight snow. Ice fog.7 mph84%30.05 "Hg1 mi
10:00 am-2 °FLight snow. Overcast.8 mph84%30.06 "Hg2 mi
9:00 am0 °FOvercast.7 mph84%30.06 "Hg15 mi
8:00 am1 °FPassing clouds.7 mph85%30.08 "Hg20 mi
7:00 am0 °FPassing clouds.7 mph84%30.08 "Hg15 mi
6:00 am-2 °FPassing clouds.6 mph92%30.12 "Hg15 mi
5:00 am-2 °FPassing clouds.7 mph84%30.15 "Hg9 mi
4:00 am-2 °FPassing clouds.2 mph84%30.18 "Hg9 mi
3:00 am1 °FPassing clouds.9 mph85%30.20 "Hg9 mi
2:00 am1 °FLight snow. Overcast.7 mph85%30.24 "Hg9 mi
1:01 am1 °FLight snow. Mostly cloudy.8 mph85%30.27 "Hg6 mi
12:00 am1 °FLight snow. Overcast.13 mph85%30.27 "Hg3 mi
11:00 pm
Fri, Dec 9
0 °FLight snow. Overcast.6 mph84%30.32 "Hg9 mi
10:00 pm-2 °FLight snow. Mostly cloudy.7 mph84%30.36 "Hg15 mi
9:00 pm0 °FLight snow. Mostly cloudy.8 mph84%30.38 "Hg15 mi
8:00 pm0 °FLight snow. Overcast.6 mph84%30.41 "Hg10 mi
7:00 pm0 °FLight snow. Mostly cloudy.6 mph78%30.43 "Hg8 mi
6:00 pm-2 °FLight snow. Mostly cloudy.7 mph84%30.47 "Hg10 mi
5:00 pm-2 °FPartly cloudy.10 mph84%30.50 "Hg15 mi
4:00 pm-4 °FBroken clouds.8 mph84%30.51 "Hg10 mi
3:00 pm-2 °FBroken clouds.9 mph77%30.53 "Hg10 mi
2:00 pm-2 °FBroken clouds.7 mph77%30.55 "Hg15 mi
1:00 pm-4 °FBroken clouds.5 mph77%30.58 "Hg15 mi
Weather by CustomWeather, © 2016

See weather overviewHow to use our weather pages